Theta_e
364 364 365 365 364 364 361 360 359 360 360 355 357 357 358 358 359 360 358 355 356 354 351 350 347 343 341 339 340 339 338 337 337 336 337 339 338 339 338 338 338 337 337
363 364 365 365 365 365 364 362 362 361 361 362 357 359 359 358 359 361 360 354 356 356 354 350 348 347 345 341 340 339 338 337 337 342 337 342 340 340 340 341 340 336 336
361 362 364 365 365 364 364 364 363 363 363 362 362 361 361 359 359 362 361 360 356 357 356 354 350 348 349 342 339 339 339 339 339 339 337 339 339 341 341 342 341 339 338
359 361 362 365 365 364 364 365 364 364 364 364 364 363 362 361 359 360 361 361 359 357 357 355 353 349 348 348 345 341 342 340 340 340 338 336 339 339 339 339 341 340 339
358 361 362 364 366 365 364 364 365 364 365 365 365 364 364 363 360 359 359 361 361 360 358 357 355 351 348 347 346 344 341 342 338 339 339 338 336 337 339 339 338 337 339
357 359 361 363 365 366 366 365 365 365 365 365 366 365 365 364 359 357 358 359 360 361 361 359 356 353 349 346 344 341 342 343 340 337 337 340 341 339 337 338 337 337 337
357 360 361 363 364 366 367 366 366 367 366 366 366 366 366 365 362 357 356 357 359 360 361 361 360 355 351 348 344 342 341 342 341 343 340 341 341 340 339 341 340 339 338
359 358 362 363 365 366 367 367 367 367 367 367 367 366 366 366 365 361 356 355 357 358 359 359 360 358 354 350 349 345 342 340 340 340 342 342 339 341 343 342 341 341 339
361 361 359 364 365 367 368 368 367 367 367 367 367 367 366 366 365 363 361 355 356 357 357 358 359 360 357 352 351 351 346 343 340 339 336 337 343 342 342 342 339 339 337
361 361 362 363 365 366 367 368 367 367 367 365 366 366 366 366 365 363 361 359 357 356 357 357 358 360 359 356 352 352 352 347 344 341 340 335 338 339 339 339 338 337 336
356 359 363 364 366 366 367 367 367 367 364 365 365 365 366 365 366 362 360 358 357 357 357 357 358 359 358 357 356 353 352 350 344 342 339 338 338 338 340 339 337 337 335
357 359 362 364 364 365 368 368 368 367 367 367 366 366 364 365 363 363 357 351 354 357 356 355 356 355 357 357 356 355 352 349 343 343 341 341 340 339 339 337 335 334 334
361 362 363 365 365 363 367 369 367 367 363 363 363 363 361 361 363 361 358 354 353 356 357 357 356 356 355 357 356 353 349 345 345 343 342 340 339 338 337 336 334 333 328
363 364 365 366 367 365 364 364 364 362 363 361 361 360 361 359 358 360 360 357 356 351 354 353 354 353 353 353 350 348 344 338 335 342 341 340 338 337 335 334 330 328 326
360 361 362 363 364 364 361 357 362 360 356 361 360 360 359 359 358 358 356 355 351 347 345 348 345 345 346 341 338 340 338 340 341 340 341 339 337 335 332 329 327 325 323
360 360 360 361 363 363 358 348 348 348 352 353 353 358 358 360 359 359 359 357 353 351 346 340 338 337 336 336 338 339 339 338 340 340 338 336 335 332 329 327 325 324 323
362 361 359 360 362 362 363 361 359 342 349 356 355 354 353 347 348 349 348 349 353 348 344 338 338 338 338 337 336 336 338 338 339 338 337 335 333 329 328 325 324 324 322
358 356 357 357 357 358 358 354 355 356 354 347 335 336 336 338 338 340 339 338 333 334 333 333 334 334 334 334 334 336 337 338 336 337 335 332 329 328 326 326 325 323 322
354 354 355 355 354 353 351 350 348 347 344 341 336 333 331 335 334 335 333 332 332 332 334 334 334 334 333 333 334 334 335 336 335 334 331 330 329 328 327 325 324 323 321
346 347 348 348 347 348 347 345 344 344 344 342 341 341 332 334 335 332 334 336 335 336 337 338 338 336 336 333 334 335 334 334 333 332 331 330 329 327 326 325 323 321 318
344 344 345 345 345 345 345 344 343 343 343 342 340 337 334 336 336 335 332 334 335 334 336 337 337 336 334 333 333 333 332 332 332 330 329 328 327 326 324 323 322 319 316
342 342 342 341 341 340 340 339 338 338 337 336 335 331 330 333 335 336 334 335 336 336 337 337 336 335 332 332 331 331 332 331 330 329 328 327 326 325 323 321 319 316 313
340 340 340 340 339 340 339 338 337 337 337 337 336 333 333 336 336 335 334 335 335 337 335 335 333 331 331 331 331 331 331 330 329 328 327 326 324 323 321 319 315 313 312
336 336 337 336 336 336 337 337 336 335 336 336 337 337 337 337 337 337 337 337 337 336 335 334 334 334 332 332 331 330 328 326 325 325 324 323 322 320 319 315 313 312 312
331 330 331 333 334 334 334 333 333 335 336 336 334 334 333 334 335 334 335 334 334 333 333 332 331 330 329 327 325 323 321 321 322 321 322 321 320 317 315 314 313 312 311
325 325 324 324 325 327 326 326 326 326 329 328 329 330 332 331 330 329 329 328 328 327 326 325 325 325 323 322 321 318 317 315 316 316 317 316 316 315 314 312 312 311 311
Wind_Speed
40 41 39 39 38 36 36 34 33 29 26 28 20 24 24 25 25 24 23 19 23 21 19 19 20 19 15 14 13 12 12 11 10 10 6 10 10 10 8 8 10 10 13
41 39 40 39 38 38 37 36 34 35 32 29 31 27 28 28 28 27 26 25 23 23 24 23 22 19 21 18 16 16 16 14 14 9 8 9 11 13 13 12 12 12 12
39 38 37 38 38 39 38 37 37 36 35 34 33 32 32 31 30 30 29 28 27 28 27 27 25 22 20 22 23 19 18 15 13 15 13 13 12 11 13 14 13 13 12
38 39 37 38 41 39 37 37 37 37 37 37 36 35 35 33 33 33 33 33 32 31 29 28 26 25 27 25 22 24 17 17 17 16 15 15 14 12 12 14 15 15 14
37 37 38 37 36 34 36 38 38 38 37 36 35 36 36 36 37 36 36 35 33 31 28 29 29 30 31 30 26 24 24 21 19 16 15 15 16 15 14 13 14 15 13
32 37 36 36 35 36 35 36 35 37 37 36 37 37 36 37 39 40 39 33 32 31 31 33 31 35 37 35 35 28 28 24 22 20 19 18 16 14 14 14 15 12 10
32 30 35 35 37 36 35 35 39 38 34 37 36 36 38 41 43 44 44 38 33 33 32 30 33 34 37 35 37 37 33 31 31 26 21 17 12 14 16 10 12 13 13
29 34 32 35 34 34 35 36 32 31 34 34 34 36 37 39 40 42 43 45 38 34 34 37 38 36 34 37 35 42 43 40 36 32 23 18 18 15 11 14 14 13 14
29 33 36 32 33 33 35 31 31 31 31 34 35 36 39 38 38 43 40 37 38 40 41 42 42 40 39 40 39 35 37 38 35 36 34 24 18 15 17 13 15 14 14
31 30 29 30 32 33 31 33 33 33 33 32 35 39 41 38 37 37 40 33 32 38 43 45 42 40 40 43 46 40 35 35 34 29 29 29 27 25 24 24 16 16 11
24 26 28 30 31 31 31 30 31 31 30 32 32 34 35 36 35 41 37 43 52 48 42 39 38 39 46 46 48 39 36 26 32 26 30 27 28 27 29 28 25 18 14
23 25 27 29 30 30 29 28 29 29 30 28 31 29 31 33 38 42 53 65 50 41 42 41 35 36 42 52 51 50 40 36 32 29 24 24 28 30 30 26 21 20 15
22 23 25 27 28 26 29 27 27 26 27 27 27 28 28 27 32 41 41 46 46 33 29 24 25 25 21 37 50 48 41 32 35 33 39 35 32 31 31 23 18 19 13
20 21 22 24 24 25 24 25 25 24 26 26 24 24 23 24 26 25 27 35 40 43 39 28 30 30 28 31 39 44 44 32 39 36 30 34 33 31 29 26 21 17 14
18 19 19 21 23 21 16 14 21 15 17 23 22 20 19 21 22 11 29 27 23 25 25 27 29 26 23 24 29 33 25 21 29 30 32 29 30 27 25 24 20 19 17
17 17 19 19 21 21 18 9 5 5 2 7 8 5 5 12 18 20 15 12 21 23 21 21 17 17 18 21 21 19 21 26 28 25 25 28 26 26 25 22 21 20 18
15 17 17 16 19 18 18 16 13 7 4 5 7 9 11 8 11 12 10 11 16 20 8 9 6 8 10 14 18 21 22 27 28 28 30 27 27 26 24 21 20 18 14
8 10 13 13 14 14 13 9 9 8 7 4 5 3 3 5 8 9 6 2 14 11 10 8 5 4 5 9 12 18 22 21 23 28 25 27 27 22 23 21 19 16 15
13 10 10 10 10 11 12 12 11 9 8 9 8 7 8 7 8 7 9 10 12 8 5 5 8 11 12 15 19 21 25 24 22 24 26 26 23 23 21 20 19 17 16
15 14 13 14 13 12 11 10 10 8 7 6 4 4 5 7 9 9 3 3 7 10 9 6 8 9 13 21 18 18 22 23 25 26 25 23 23 22 22 20 18 15 14
15 13 16 15 13 11 8 7 6 6 5 3 1 1 6 7 6 6 7 6 5 7 8 7 10 10 13 17 22 25 24 27 22 23 20 22 21 20 18 17 16 16 15
14 13 11 12 13 11 9 8 7 5 5 6 5 3 5 3 3 4 3 5 4 5 5 7 9 12 16 20 24 27 22 24 24 24 23 22 20 18 17 16 16 16 15
17 13 14 14 14 14 12 10 12 10 9 10 11 9 7 4 3 3 5 7 7 6 7 9 11 14 18 19 20 21 21 21 21 20 19 18 18 17 17 17 16 16 15
28 25 22 20 15 17 14 15 10 10 8 7 8 8 4 5 7 6 6 7 9 9 10 12 14 16 18 18 18 17 15 16 17 16 16 18 18 17 17 16 17 17 16
23 23 22 20 18 19 20 22 16 11 11 8 9 9 1 6 9 8 10 9 9 10 12 13 14 15 16 16 16 15 14 15 15 14 16 15 17 16 18 18 18 17 17
23 23 22 22 20 19 19 19 20 21 19 19 18 15 12 14 14 13 4 2 7 9 10 12 13 15 17 16 16 14 14 13 15 15 14 15 16 17 18 18 17 17 16
Wind_Direction
204 207 208 209 210 211 215 214 215 216 218 219 210 203 209 212 213 212 219 222 204 214 219 222 217 224 232 224 227 232 236 236 247 259 204 176 193 223 212 217 227 233 243
206 208 209 209 209 210 213 215 214 214 213 211 211 207 208 212 213 213 214 220 212 212 218 220 221 222 229 235 230 229 231 232 240 247 253 190 206 224 232 235 239 246 250
209 210 212 211 210 211 211 210 213 214 214 213 211 210 210 211 213 215 214 219 220 217 218 219 219 217 222 225 229 232 231 235 234 248 252 229 238 213 222 233 238 249 260
210 213 213 212 213 212 210 210 210 213 213 213 212 212 213 213 214 216 216 218 221 221 219 219 219 216 220 221 224 229 240 228 227 236 241 248 225 231 233 252 228 227 240
207 209 212 213 215 214 211 212 212 211 213 214 213 214 214 214 217 219 221 221 222 222 221 220 222 220 222 220 217 221 222 227 235 226 247 258 255 236 219 237 250 254 217
213 209 209 211 210 213 213 212 212 213 212 212 214 214 214 219 225 226 222 225 226 225 223 223 222 224 225 223 221 220 218 215 219 231 233 233 242 245 247 257 269 271 267
214 213 210 207 209 210 212 211 213 212 209 213 215 215 218 219 222 225 224 221 227 229 230 228 228 228 224 221 224 228 224 221 221 219 233 248 242 236 243 250 246 260 267
216 214 212 209 208 207 209 214 214 213 213 213 216 219 222 226 226 226 227 225 227 232 230 229 230 229 224 214 215 222 226 224 223 224 225 237 250 253 239 235 238 258 262
217 216 215 208 207 206 209 209 210 211 214 215 216 218 220 224 225 225 226 226 229 232 233 233 230 226 223 222 212 213 217 221 223 223 222 225 226 226 244 231 227 240 262
214 215 212 213 208 209 207 205 207 210 215 216 218 220 221 221 220 223 220 218 233 239 240 238 239 231 226 224 216 213 212 212 202 204 216 223 224 230 235 227 227 241 244
214 210 208 208 208 210 208 206 205 209 215 217 224 223 226 223 220 216 210 214 217 227 231 232 231 231 227 229 227 220 220 204 192 202 207 213 221 228 227 227 226 237 245
210 204 204 202 204 207 205 205 206 207 213 219 220 228 225 223 219 217 220 223 224 220 225 232 232 230 227 225 223 222 216 199 190 187 192 192 207 214 220 227 213 218 227
203 203 200 196 199 208 198 201 204 207 217 218 225 226 232 226 228 230 235 248 237 238 242 249 242 243 236 232 226 220 203 191 164 188 196 192 196 212 212 208 196 209 204
200 200 197 191 194 202 196 202 208 211 215 226 218 228 229 231 236 235 243 248 254 238 237 251 259 251 243 241 226 207 182 185 221 203 193 197 198 190 202 186 177 181 192
198 199 195 195 191 192 202 200 210 211 226 221 226 224 229 234 236 273 231 225 225 235 234 232 234 229 223 203 190 185 195 193 194 197 199 188 187 184 183 175 178 187 198
192 193 193 191 181 190 173 153 87 138 123 205 215 257 275 301 303 304 306 268 239 235 207 218 210 199 192 187 188 192 188 197 203 195 186 192 183 179 175 175 191 201 206
201 183 178 199 175 190 175 189 185 109 87 248 267 282 295 325 328 320 302 275 265 240 220 169 170 165 160 179 180 182 191 201 196 186 187 194 184 175 173 179 194 208 210
120 137 159 162 167 168 156 180 190 194 189 143 78 47 11 3 24 37 25 49 117 99 97 123 137 193 198 195 195 193 188 196 197 189 190 174 172 173 179 190 196 201 211
126 116 110 123 131 128 138 155 149 149 148 131 122 62 37 50 58 84 101 124 141 138 128 168 212 219 221 231 217 205 196 186 173 172 165 178 183 181 184 197 201 203 206
106 127 131 131 130 144 151 152 152 152 158 160 158 137 122 120 114 134 154 161 184 206 237 248 195 192 177 179 176 161 156 168 171 174 189 184 186 189 193 194 205 186 204
129 144 136 135 128 128 124 126 118 148 167 217 62 127 166 201 200 180 219 226 212 207 210 199 170 177 181 181 170 167 170 174 180 185 181 185 191 197 204 202 203 206 197
129 124 124 120 120 120 113 110 108 112 122 139 116 94 156 231 233 175 203 229 191 173 150 170 185 188 190 180 175 164 179 183 185 188 189 193 193 197 200 208 201 209 208
95 97 92 89 104 105 80 95 112 112 103 101 113 130 167 192 220 189 178 214 210 183 188 194 199 191 177 170 182 193 185 182 187 198 194 188 189 197 209 206 206 205 204
62 67 77 74 66 81 98 96 89 92 105 110 126 124 149 142 162 170 184 175 179 178 178 182 181 184 185 189 188 186 194 188 181 189 191 193 201 199 206 205 208 207 206
65 70 68 69 60 64 65 54 40 69 92 83 68 49 52 157 185 181 180 183 177 180 181 181 181 172 175 176 176 179 179 171 176 191 197 204 209 203 205 207 209 205 208
76 73 72 69 61 61 63 58 46 35 37 34 40 35 23 24 28 43 87 188 184 197 196 188 180 181 174 176 172 164 176 194 199 188 195 205 206 208 204 215 206 209 203